SCP
1 1 1 1 2 2 2 2 2 2 1 1 1 1 1 1 1 1 1 1 2 2 3 3 3 3 2 2 1 1 1 1 1 1 1 1 1 1 0 0 0 0 0
2 2 2 2 3 3 3 2 2 2 2 1 1 1 1 1 1 1 1 1 2 3 3 4 4 3 3 2 2 2 1 1 1 1 1 1 1 1 1 0 0 0 0
4 3 3 3 4 4 4 3 2 2 2 2 1 1 1 1 1 1 2 2 2 2 3 4 5 8 10 7 2 2 2 1 1 1 1 1 1 1 1 1 1 0 0
5 5 5 4 4 4 4 3 3 2 2 2 2 1 1 1 1 1 2 2 2 2 2 3 4 11 18 10 3 2 2 2 1 1 1 1 1 1 1 1 1 1 0
6 6 6 5 5 4 4 3 3 3 2 2 2 2 2 1 1 1 1 1 1 1 2 2 3 8 11 8 3 3 2 2 2 1 1 1 1 1 1 1 1 1 1
6 6 7 7 7 5 4 3 3 3 3 2 2 2 2 2 1 1 1 1 1 1 1 2 2 2 3 3 3 3 3 2 2 2 1 1 1 1 1 1 1 1 1
5 6 7 8 8 6 4 4 4 3 3 3 3 2 2 2 1 1 1 1 1 1 1 1 2 2 2 2 2 3 3 2 2 2 2 2 1 1 1 1 1 1 0
4 5 6 6 7 6 4 4 5 4 4 3 3 2 2 1 1 1 1 1 1 1 1 1 1 1 1 1 1 2 2 2 2 2 2 2 2 1 1 1 1 1 0
3 4 4 4 5 5 4 4 5 5 4 4 3 2 1 1 1 1 1 1 1 1 1 1 1 1 1 1 1 1 1 2 2 1 2 2 2 1 1 1 1 1 1
3 3 4 4 5 5 4 4 5 5 5 4 3 2 2 1 1 1 1 0 0 0 0 1 1 0 1 1 1 1 1 1 1 1 1 1 1 1 1 1 1 1 1
3 3 4 4 4 4 4 4 5 5 5 4 3 2 1 1 1 1 1 0 0 0 0 0 0 0 0 0 0 0 0 0 0 1 1 1 1 1 1 1 1 1 1
3 3 4 4 4 4 4 4 4 4 4 4 3 2 1 1 1 1 0 0 0 0 0 0 0 0 0 0 0 0 0 0 0 0 0 1 1 1 1 1 1 1 1
3 3 3 3 4 4 4 4 3 3 3 3 2 2 1 1 1 0 0 0 0 0 0 0 0 0 0 0 0 0 0 0 0 0 0 0 0 1 1 1 1 1 1
2 2 3 3 4 4 4 3 3 3 3 2 2 1 1 1 0 0 0 0 0 0 0 0 0 0 0 0 0 0 0 0 0 0 0 0 0 0 0 1 1 1 1
1 2 2 3 4 4 3 2 2 2 2 2 1 1 1 0 0 0 0 0 0 0 0 0 0 0 0 0 0 0 0 0 0 0 0 0 0 0 0 0 0 0 0
1 1 2 3 3 3 3 2 2 2 2 1 1 1 0 0 0 0 0 0 0 0 0 0 0 0 0 0 0 0 0 0 0 0 0 0 0 0 0 0 0 0 0
1 1 1 2 3 3 2 2 1 1 1 1 1 1 0 0 0 0 0 0 0 0 0 0 0 0 0 0 0 0 0 0 0 0 0 0 0 0 0 0 0 0 0
1 1 1 2 2 2 1 1 1 0 1 1 1 0 0 0 0 0 0 0 0 0 0 0 0 0 0 0 0 0 0 0 0 0 0 0 0 0 0 0 0 0 0
0 0 1 1 1 1 1 0 0 0 0 0 0 0 0 0 0 0 0 0 0 0 0 0 0 0 0 0 0 0 0 0 0 0 0 0 0 0 0 0 0 0 0
0 0 0 0 0 0 0 0 0 0 0 0 0 0 0 0 0 0 0 0 0 0 0 0 0 0 0 0 0 0 0 0 0 0 0 0 0 0 0 0 0 0 0
0 0 0 0 0 0 0 0 0 0 0 0 0 0 0 0 0 0 0 0 0 0 0 0 0 0 0 0 0 0 0 0 0 0 0 0 0 0 0 0 0 0 0
0 0 0 0 0 0 0 0 0 0 0 0 0 0 0 0 0 0 0 0 0 0 0 0 0 0 0 0 0 0 0 0 0 0 0 0 0 0 0 0 0 0 0
0 0 0 0 0 0 0 0 0 0 0 0 0 0 0 0 0 0 0 0 0 0 0 0 0 0 0 0 0 0 0 0 0 0 0 0 0 0 0 0 0 0 0
0 0 0 0 0 0 0 0 0 0 0 0 0 0 0 0 0 0 0 0 0 0 0 0 0 0 0 0 0 0 0 0 0 0 0 0 0 0 0 0 0 0 0
0 0 0 0 0 0 0 0 0 0 0 0 0 0 0 0 0 0 0 0 0 0 0 0 0 0 0 0 0 0 0 0 0 0 0 0 0 0 0 0 0 0 0
0 0 0 0 0 0 0 0 0 0 0 0 0 0 0 0 0 0 0 0 0 0 0 0 0 0 0 0 0 0 0 0 0 0 0 0 0 0 0 0 0 0 0
Wind_Speed
8 8 6 6 7 6 7 7 7 7 8 8 9 9 9 9 8 8 6 13 16 16 17 19 20 20 19 19 18 17 17 17 16 16 16 17 18 18 18 18 18 17 17
9 8 7 7 7 7 7 7 8 7 7 6 8 8 8 7 7 7 7 8 13 15 17 19 21 21 21 20 19 18 18 17 16 16 16 17 17 17 18 18 18 17 17
10 9 8 7 7 6 7 5 6 5 5 5 6 6 5 6 6 6 6 5 6 12 17 20 21 21 22 21 20 20 18 18 17 16 16 16 17 17 17 17 17 17 17
12 9 8 7 6 5 5 5 4 4 4 4 4 4 4 4 6 7 6 6 5 6 11 19 21 22 22 22 22 21 19 19 18 17 16 16 16 16 16 16 16 16 16
10 9 7 6 5 4 4 4 3 3 3 4 4 4 5 5 6 7 7 7 7 7 7 11 19 22 23 23 22 22 20 19 19 18 18 17 17 16 16 16 16 16 16
7 7 6 6 5 3 3 3 3 3 3 3 5 5 5 5 5 6 7 7 6 8 8 8 8 12 20 21 21 22 21 20 19 19 19 18 18 17 16 16 16 16 16
6 6 6 5 5 5 5 5 4 4 4 3 2 4 5 6 7 6 5 5 6 6 5 5 5 5 6 13 17 19 20 20 19 19 19 19 18 17 17 17 16 16 16
6 6 7 6 6 5 6 7 6 4 4 4 3 2 3 4 4 5 3 2 3 3 4 3 2 3 3 3 6 13 17 19 19 18 18 18 18 18 18 18 17 17 17
6 6 6 6 6 6 6 7 6 6 5 4 4 4 3 4 3 3 3 1 2 3 3 3 1 1 1 2 2 6 10 13 15 17 17 17 17 17 18 18 18 18 18
5 5 5 5 6 6 6 7 7 6 6 5 4 4 4 4 2 3 3 2 2 2 3 3 2 2 1 1 0 2 4 5 8 10 12 15 16 17 18 18 19 19 18
5 4 4 4 5 5 7 7 6 7 6 6 5 3 4 3 4 3 4 3 3 2 2 2 1 2 2 2 1 1 1 0 2 4 6 10 13 15 16 17 18 19 19
4 4 4 4 4 5 6 7 6 6 6 6 5 4 4 3 3 3 4 3 2 2 2 2 2 2 1 2 2 2 1 1 1 2 2 4 7 9 11 13 15 16 17
4 5 4 4 4 5 5 5 6 6 6 6 5 4 4 3 3 2 2 2 1 2 2 2 2 2 2 2 2 2 2 2 2 2 1 1 2 4 6 7 9 12 13
4 5 5 5 5 5 5 4 4 5 4 5 5 4 3 3 3 3 3 2 1 1 2 3 2 3 2 2 2 3 2 3 2 1 1 1 1 1 2 4 5 7 8
5 5 5 4 3 3 2 3 3 4 4 4 4 4 3 2 2 2 2 3 3 2 1 2 2 3 3 2 3 2 2 2 2 1 1 1 1 1 1 2 3 4 6
5 5 5 4 3 2 1 1 2 3 4 3 3 3 3 2 2 2 2 2 2 3 2 1 2 2 3 4 5 3 3 3 2 2 1 1 1 1 2 2 3 4 6
5 4 4 3 2 1 0 1 2 3 4 4 4 5 5 4 3 3 3 2 2 3 3 2 3 4 5 5 5 4 4 3 2 3 2 1 1 2 2 3 4 5 6
4 4 3 2 2 1 1 2 4 5 6 6 6 6 6 6 6 4 3 4 3 3 4 4 3 4 5 5 5 5 4 4 3 5 4 2 2 3 3 4 4 5 7
3 3 3 2 2 2 3 5 7 7 8 8 7 7 6 7 6 5 6 5 5 6 5 5 3 3 3 3 4 4 5 4 4 5 5 3 3 4 4 4 5 6 7
2 2 3 3 3 4 5 7 9 9 8 8 7 7 6 6 6 6 7 6 7 7 6 5 4 3 3 3 4 4 4 4 3 5 5 4 4 5 5 5 5 6 8
1 1 3 4 4 5 5 7 7 9 8 8 7 6 7 8 9 7 6 5 7 6 5 5 4 4 4 4 4 3 3 3 3 3 3 3 3 3 3 4 5 8 9
0 1 3 4 4 5 7 8 7 7 7 8 7 6 7 8 10 11 10 9 8 7 5 4 3 3 3 3 3 3 3 4 4 4 3 3 2 2 2 2 5 8 9
2 2 2 3 4 4 8 9 10 7 7 6 6 5 6 6 6 6 9 10 9 9 6 5 4 2 1 2 2 4 3 2 2 4 3 4 3 3 3 3 6 7 8
3 3 4 4 4 5 9 10 11 8 7 6 6 6 6 5 5 6 7 7 6 5 5 4 2 1 0 1 0 0 2 2 3 3 3 3 4 3 3 3 5 6 7
4 4 5 5 5 5 9 11 10 6 6 6 5 5 6 6 8 10 8 6 6 5 6 8 6 5 6 6 4 3 4 4 3 4 3 2 4 4 3 3 4 6 7
6 6 5 5 6 5 8 11 10 6 6 5 4 4 6 8 9 10 7 6 6 4 4 6 7 7 6 7 8 4 2 2 2 3 4 3 3 4 4 3 3 3 4
Wind_Direction
224 227 229 228 225 219 218 221 225 232 235 239 242 243 245 242 239 237 244 250 247 239 230 224 221 223 227 228 228 228 228 229 227 224 222 223 222 221 219 218 216 215 213
224 226 229 225 221 214 214 216 221 225 230 233 238 240 242 243 241 240 241 249 247 238 230 228 227 227 229 230 229 229 230 230 228 224 222 222 222 221 220 219 217 215 213
223 224 227 225 220 209 205 209 216 217 225 228 235 241 245 248 253 252 251 248 247 243 236 233 233 232 232 232 232 231 230 229 227 224 222 222 221 220 219 218 216 214 212
224 223 225 226 217 203 196 201 204 209 225 228 234 245 249 253 260 261 260 256 248 250 243 239 237 237 237 236 236 235 232 229 225 223 221 220 220 218 216 215 215 213 211
226 225 226 225 212 207 208 213 209 208 228 238 243 249 251 252 257 265 265 262 251 245 243 243 240 239 239 240 238 237 235 231 226 223 221 219 217 215 213 213 213 212 210
232 226 230 225 209 202 218 217 221 226 230 238 260 266 259 255 255 258 265 268 262 255 247 244 241 242 241 242 239 237 237 235 230 225 221 218 216 212 211 211 211 212 211
240 229 231 219 207 208 215 216 216 230 239 222 245 279 275 260 257 258 261 271 279 278 268 251 238 236 243 241 240 238 237 237 234 227 222 218 215 211 209 210 210 211 212
252 245 233 221 210 215 219 221 214 213 229 200 191 231 291 307 278 258 256 260 297 315 312 302 272 245 246 245 242 240 240 240 238 232 224 216 213 210 208 210 210 211 212
266 250 237 225 215 214 225 223 215 210 224 222 198 190 206 245 296 300 268 277 342 337 323 314 329 325 248 230 244 247 249 246 242 239 229 218 212 209 209 210 211 212 213
283 269 249 231 222 216 219 223 216 210 213 226 220 213 208 195 213 291 305 303 323 323 319 324 348 9 43 92 207 232 248 250 249 248 238 222 214 210 209 212 214 215 215
291 283 263 244 233 227 226 224 221 213 210 215 208 201 214 214 203 210 272 303 324 314 322 333 5 29 50 67 68 79 102 257 271 268 255 233 220 214 212 214 219 221 219
296 294 281 261 246 234 227 225 220 214 209 211 205 197 189 190 192 192 224 262 290 300 333 4 35 44 52 60 58 76 76 35 295 276 272 250 231 220 215 219 224 226 225
300 298 292 272 260 249 237 223 214 210 202 202 204 204 197 194 184 178 188 225 276 313 351 9 11 31 43 42 28 29 17 2 332 312 300 269 244 233 227 225 229 232 235
294 295 293 280 267 258 245 218 208 205 199 201 203 193 188 189 181 177 174 167 160 346 9 356 347 12 17 23 15 27 357 352 339 315 303 278 241 238 244 242 248 253 250
301 304 300 293 287 270 246 207 200 196 182 186 193 185 167 169 164 159 165 161 152 139 7 338 355 351 359 18 10 10 344 333 349 325 301 269 239 244 253 258 261 266 266
309 308 304 304 304 305 285 203 190 184 168 159 151 140 129 118 105 99 107 116 133 143 143 354 359 350 5 18 17 11 352 355 1 356 341 287 261 259 266 273 280 282 278
311 308 307 309 312 314 299 120 129 133 129 115 110 111 101 102 91 81 84 89 88 111 115 47 16 11 25 19 7 9 14 19 11 18 11 340 312 296 292 294 297 296 293
319 317 318 330 344 8 56 92 101 100 103 102 98 94 89 86 75 71 77 72 72 86 109 94 30 17 22 14 14 16 11 20 20 23 18 3 342 320 305 301 302 302 299
333 341 348 5 21 41 76 88 93 93 93 95 93 90 86 86 79 70 69 71 75 81 85 92 53 16 11 9 8 8 11 9 15 19 18 10 353 341 326 315 312 308 306
337 354 13 34 53 64 75 91 95 93 90 86 83 83 82 85 85 79 76 76 85 83 78 77 58 24 9 344 13 6 1 358 5 10 10 15 14 12 4 355 339 329 320
326 7 47 56 67 81 87 92 96 101 97 90 80 75 76 80 80 82 88 85 88 87 80 76 60 40 19 10 359 343 356 338 341 356 349 352 357 3 2 356 346 334 325
343 76 74 67 67 85 99 99 105 101 103 102 97 84 74 64 71 75 82 85 94 99 97 86 70 58 21 360 346 356 359 10 348 337 351 329 341 337 325 330 337 336 334
166 129 118 104 93 100 113 116 114 109 105 103 98 87 78 62 64 75 71 66 64 75 99 117 95 75 37 340 3 8 8 12 319 311 348 328 327 319 309 320 335 339 340
170 159 147 133 119 121 123 119 110 100 95 92 93 95 92 70 73 90 81 67 53 44 53 78 111 136 165 259 197 303 299 340 326 327 18 347 318 310 308 311 324 333 337
170 167 157 146 131 125 127 123 113 101 94 84 85 90 96 86 88 94 87 75 52 24 38 62 75 74 55 47 55 45 25 32 357 321 348 359 311 310 310 309 317 329 333
171 165 161 159 148 143 135 127 122 117 110 102 84 78 90 100 94 93 92 85 67 29 37 51 48 38 34 31 39 59 77 61 19 331 321 346 324 337 328 312 322 335 334